| time (UTC) | temp C | wind direction | speed KPH | gust KPH | rain 1hr cm | rain 24hr cm | rain mn cm | humidity % | barometer mb |
| 20260506201559 | 19 | 174 | 3.2 | 9.7 | 0.00 | 0.05 | 0.05 | 76 | 1008.5 |
| 20260506200104 | 19 | 217 | 3.2 | 8.0 | 0.00 | 0.05 | 0.05 | 75 | 1008.7 |
| 20260506194557 | 19 | 317 | 4.8 | 16.1 | 0.00 | 0.05 | 0.05 | 76 | 1008.9 |
| 20260506193058 | 18 | 205 | 3.2 | 8.0 | 0.00 | 0.05 | 0.05 | 78 | 1009.2 |
| 20260506191558 | 18 | 131 | 4.8 | 11.3 | 0.00 | 0.05 | 0.05 | 79 | 1009.2 |
| 20260506184558 | 17 | 224 | 4.8 | 12.9 | 0.05 | 0.05 | 0.05 | 83 | 1009.5 |
| 20260506183057 | 17 | 134 | 4.8 | 9.7 | 0.05 | 0.05 | 0.05 | 84 | 1009.7 |
| 20260506181559 | 16 | 0 | 0.0 | 9.7 | 0.05 | 0.05 | 0.05 | 85 | 1009.7 |
| 20260506180057 | 16 | 212 | 3.2 | 11.3 | 0.03 | 0.03 | 0.03 | 82 | 1010.3 |
| 20260506174558 | 17 | 126 | 4.8 | 12.9 | 0.00 | 0.00 | 0.00 | 80 | 1010.2 |
| 20260506173127 | 17 | 184 | 3.2 | 14.5 | 0.00 | 0.00 | 0.00 | 80 | 1010.4 |
| 20260506171610 | 17 | 246 | 3.2 | 17.7 | 0.00 | 0.00 | 0.00 | 80 | 1010.4 |
| 20260506170057 | 17 | 10 | 4.8 | 19.3 | 0.00 | 0.00 | 0.00 | 78 | 1010.4 |
| 20260506164606 | 17 | 145 | 4.8 | 19.3 | 0.00 | 0.00 | 0.00 | 76 | 1010.9 |
| 20260506163107 | 17 | 186 | 6.4 | 16.1 | 0.00 | 0.00 | 0.00 | 75 | 1011.3 |
| 20260506161639 | 17 | 139 | 4.8 | 14.5 | 0.00 | 0.00 | 0.00 | 75 | 1011.4 |
| 20260506160108 | 17 | 219 | 4.8 | 17.7 | 0.00 | 0.00 | 0.00 | 76 | 1011.5 |
| 20260506154600 | 18 | 189 | 6.4 | 19.3 | 0.00 | 0.00 | 0.00 | 74 | 1011.6 |
| 20260506153100 | 18 | 186 | 6.4 | 19.3 | 0.00 | 0.00 | 0.00 | 74 | 1011.7 |
| 20260506151558 | 19 | 124 | 6.4 | 14.5 | 0.00 | 0.00 | 0.00 | 73 | 1011.6 |
| 20260506150059 | 19 | 263 | 6.4 | 17.7 | 0.00 | 0.00 | 0.00 | 72 | 1011.6 |
| 20260506144559 | 19 | 186 | 4.8 | 16.1 | 0.00 | 0.00 | 0.00 | 72 | 1011.7 |
| 20260506143058 | 20 | 193 | 4.8 | 16.1 | 0.00 | 0.00 | 0.00 | 71 | 1011.8 |
| 20260506141600 | 19 | 238 | 4.8 | 16.1 | 0.00 | 0.00 | 0.00 | 72 | 1011.9 |
| 20260506134556 | 17 | 122 | 8.0 | 14.5 | 0.00 | 0.00 | 0.00 | 76 | 1011.9 |
| 20260506133100 | 18 | 225 | 6.4 | 17.7 | 0.00 | 0.00 | 0.00 | 74 | 1012.0 |
| 20260506131602 | 18 | 163 | 4.8 | 16.1 | 0.00 | 0.00 | 0.00 | 73 | 1012.1 |
| 20260506130131 | 18 | 148 | 4.8 | 12.9 | 0.00 | 0.00 | 0.00 | 72 | 1012.0 |
| 20260506124601 | 18 | 160 | 4.8 | 16.1 | 0.00 | 0.00 | 0.00 | 76 | 1012.0 |
| 20260506123057 | 17 | 128 | 4.8 | 16.1 | 0.00 | 0.00 | 0.00 | 77 | 1012.1 |
| 20260506121559 | 17 | 162 | 3.2 | 17.7 | 0.00 | 0.00 | 0.00 | 79 | 1012.2 |
| 20260506120105 | 17 | 166 | 4.8 | 12.9 | 0.00 | 0.00 | 0.00 | 79 | 1012.2 |
| 20260506114557 | 16 | 144 | 4.8 | 16.1 | 0.00 | 0.00 | 0.00 | 81 | 1012.0 |
| 20260506113058 | 15 | 225 | 3.2 | 14.5 | 0.00 | 0.00 | 0.00 | 84 | 1012.1 |
| 20260506111555 | 15 | 232 | 3.2 | 8.0 | 0.00 | 0.00 | 0.00 | 85 | 1012.2 |
| 20260506104558 | 14 | 205 | 3.2 | 11.3 | 0.00 | 0.00 | 0.00 | 87 | 1012.3 |
| 20260506103059 | 13 | 266 | 0.0 | 12.9 | 0.00 | 0.00 | 0.00 | 87 | 1012.1 |
| 20260506101608 | 13 | 136 | 1.6 | 8.0 | 0.00 | 0.00 | 0.00 | 87 | 1011.9 |
| 20260506100119 | 13 | 278 | 3.2 | 12.9 | 0.00 | 0.00 | 0.00 | 87 | 1011.9 |
| 20260506094556 | 13 | 0 | 1.6 | 12.9 | 0.00 | 0.00 | 0.00 | 87 | 1011.8 |
| 20260506093059 | 13 | 233 | 0.0 | 12.9 | 0.00 | 0.00 | 0.00 | 86 | 1011.8 |
| 20260506091558 | 14 | 153 | 3.2 | 9.7 | 0.00 | 0.00 | 0.00 | 85 | 1011.9 |
| 20260506090057 | 14 | 165 | 3.2 | 14.5 | 0.00 | 0.00 | 0.00 | 85 | 1012.0 |
| 20260506084621 | 14 | 186 | 3.2 | 9.7 | 0.00 | 0.00 | 0.00 | 86 | 1012.3 |
| 20260506083058 | 14 | 160 | 3.2 | 11.3 | 0.00 | 0.00 | 0.00 | 86 | 1012.3 |
| 20260506081600 | 14 | 137 | 1.6 | 12.9 | 0.00 | 0.00 | 0.00 | 85 | 1012.3 |
| 20260506073057 | 14 | 167 | 3.2 | 9.7 | 0.00 | 0.00 | 0.00 | 86 | 1012.2 |
| 20260506071559 | 14 | 150 | 3.2 | 17.7 | 0.00 | 0.00 | 0.00 | 86 | 1012.2 |
| 20260506061556 | 14 | 133 | 1.6 | 9.7 | 0.00 | 0.00 | 0.00 | 84 | 1012.4 |
| 20260506044704 | 15 | 193 | 4.8 | 16.1 | 0.00 | 0.00 | 0.00 | 80 | 1013.0 |
| 20260506043108 | 15 | 168 | 4.8 | 20.9 | 0.00 | 0.00 | 0.00 | 80 | 1012.9 |
| 20260506041603 | 15 | 181 | 3.2 | 11.3 | 0.00 | 0.00 | 0.00 | 80 | 1012.9 |
| 20260506040057 | 15 | 166 | 3.2 | 14.5 | 0.00 | 0.00 | 0.00 | 80 | 1012.9 |
| 20260506034627 | 15 | 179 | 4.8 | 16.1 | 0.00 | 0.00 | 0.00 | 79 | 1012.9 |
| 20260506033103 | 15 | 162 | 6.4 | 16.1 | 0.00 | 0.00 | 0.00 | 78 | 1013.0 |
| 20260506031603 | 15 | 195 | 4.8 | 19.3 | 0.00 | 0.00 | 0.00 | 78 | 1013.1 |
| 20260506030057 | 16 | 223 | 6.4 | 14.5 | 0.00 | 0.00 | 0.00 | 77 | 1013.1 |
| 20260506024558 | 16 | 207 | 4.8 | 12.9 | 0.00 | 0.00 | 0.00 | 76 | 1013.1 |
| 20260506023113 | 16 | 243 | 6.4 | 24.1 | 0.00 | 0.00 | 0.00 | 75 | 1013.1 |
| 20260506021559 | 16 | 241 | 4.8 | 19.3 | 0.00 | 0.00 | 0.00 | 75 | 1013.1 |
| 20260506020100 | 16 | 231 | 9.7 | 30.6 | 0.00 | 0.00 | 0.00 | 75 | 1013.1 |
| 20260506014602 | 16 | 265 | 6.4 | 22.5 | 0.00 | 0.00 | 0.00 | 75 | 1013.0 |
| 20260506013103 | 16 | 208 | 6.4 | 17.7 | 0.00 | 0.00 | 0.00 | 75 | 1012.9 |
| 20260506011627 | 16 | 233 | 6.4 | 27.4 | 0.00 | 0.00 | 0.00 | 76 | 1013.0 |
| 20260506010103 | 15 | 249 | 8.0 | 29.0 | 0.00 | 0.00 | 0.00 | 76 | 1012.8 |
| 20260506004631 | 16 | 207 | 8.0 | 25.7 | 0.00 | 0.00 | 0.00 | 77 | 1012.6 |
| 20260506003113 | 16 | 252 | 4.8 | 17.7 | 0.00 | 0.00 | 0.00 | 76 | 1012.7 |
| 20260506001559 | 16 | 227 | 8.0 | 20.9 | 0.00 | 0.00 | 0.00 | 75 | 1012.6 |
| 20260506000100 | 16 | 212 | 6.4 | 19.3 | 0.00 | 0.00 | 0.00 | 74 | 1012.4 |
| 20260505234630 | 17 | 203 | 9.7 | 27.4 | 0.00 | 0.00 | 0.00 | 72 | 1012.5 |
| 20260505233105 | 17 | 231 | 6.4 | 20.9 | 0.00 | 0.00 | 0.00 | 71 | 1012.2 |
| 20260505231600 | 18 | 300 | 8.0 | 22.5 | 0.00 | 0.00 | 0.00 | 68 | 1012.2 |
| 20260505230057 | 19 | 176 | 8.0 | 29.0 | 0.00 | 0.00 | 0.00 | 66 | 1012.2 |
| 20260505224607 | 19 | 11 | 6.4 | 27.4 | 0.00 | 0.00 | 0.00 | 66 | 1012.2 |
| 20260505223057 | 19 | 203 | 6.4 | 22.5 | 0.00 | 0.00 | 0.00 | 66 | 1011.8 |
| 20260505221557 | 19 | 235 | 9.7 | 24.1 | 0.00 | 0.00 | 0.00 | 66 | 1011.8 |
| 20260505220105 | 19 | 174 | 8.0 | 30.6 | 0.00 | 0.00 | 0.00 | 66 | 1011.7 |
| 20260505214604 | 20 | 191 | 8.0 | 27.4 | 0.00 | 0.00 | 0.00 | 64 | 1011.6 |
| 20260505213103 | 20 | 174 | 9.7 | 25.7 | 0.00 | 0.00 | 0.00 | 64 | 1011.5 |
| 20260505211602 | 20 | 111 | 6.4 | 22.5 | 0.00 | 0.00 | 0.00 | 64 | 1011.5 |
| 20260505210058 | 20 | 140 | 9.7 | 20.9 | 0.00 | 0.00 | 0.00 | 64 | 1011.5 |
| 20260505204606 | 20 | 204 | 6.4 | 24.1 | 0.00 | 0.00 | 0.00 | 63 | 1011.5 |
| 20260505203058 | 21 | 263 | 6.4 | 30.6 | 0.00 | 0.00 | 0.00 | 63 | 1011.5 |